Weather History for KBPT - August, 2014

Change the Weather History Date:

Thursday, August 21, 2014

  Actual Average Record
Temperature  
Mean Temperature 85 °F 83 °F  
Max Temperature 94 °F 92 °F 102 °F (1925)
Min Temperature 76 °F 74 °F 63 °F (1946)
Degree Days  
Heating Degree Days 0 0  
Month to date heating degree days 0 0  
Since 1 June heating degree days 0 0  
Since 1 July heating degree days 0 0  
Cooling Degree Days 20 18  
Month to date cooling degree days 398 378  
Year to date cooling degree days 1954 1984  
Since 1 June cooling degree days 1460 1418  
Growing Degree Days 36 (Base 50)    
Moisture  
Dew Point 76 °F    
Average Humidity 75    
Maximum Humidity 97    
Minimum Humidity 52    
Precipitation  
Precipitation T in 0.18 in 5.16 in (1942)
Month to date precipitation 1.81 3.53  
Year to date precipitation 32.01 37.38  
Snow  
Snow 0.00 in 0.00 in 0.00 in ()
Month to date snowfall 0.0 0.0  
Since 1 June snowfall 0.0 0.0  
Since 1 July snowfall 0.0 0.0  
Snow Depth 0.00 in    
Sea Level Pressure  
Sea Level Pressure 30.06 in    
Wind  
Wind Speed 8 mph (South)    
Max Wind Speed 15 mph    
Max Gust Speed 21 mph    
Visibility 10 miles    
Events      
T = Trace of Precipitation, MM = Missing Value Source: NWS Daily Summary

Daily Weather History Graph

Daily Weather History Graph

Search for Another Location

Airport or City:

Trip Planner

Search our weather history database for the weather conditions in past years. The results will help you decide how hot, cold, wet, or windy it might be!

Date:

Astronomy

Aug. 21, 2014 Rise Set
Actual Time 6:47 AM CDT 7:50 PM CDT
Civil Twilight 6:22 AM CDT 8:15 PM CDT
Nautical Twilight 5:52 AM CDT 8:44 PM CDT
Astronomical Twilight 5:22 AM CDT 9:15 PM CDT
Moon 3:25 AM CDT (8/21) 5:14 PM CDT (8/21)
Length of Visible Light 13h 53m
Length of Day
13h 03m
Waning Crescent, 13% of the Moon is Illuminated
Aug 21
Waning Crescent
Aug 25
New
Sep 2
First Quarter
Sep 8
Full
Sep 15
Last Quarter

Hourly Weather History & Observations

Time (CDT) Temp. Heat Index Dew Point Humidity Pressure Visibility Wind Dir Wind Speed Gust Speed Precip Events Conditions
12:53 AM 82.9 °F 91.8 °F 77.0 °F 82% 30.03 in 10.0 mi South 6.9 mph - N/A   Clear
1:53 AM 82.0 °F 90.2 °F 77.0 °F 85% 30.03 in 10.0 mi South 6.9 mph - N/A   Clear
2:53 AM 82.0 °F 90.2 °F 77.0 °F 85% 30.03 in 10.0 mi South 5.8 mph - N/A   Clear
3:53 AM 81.0 °F 87.9 °F 77.0 °F 88% 30.03 in 10.0 mi Calm Calm - 0.00 in   Partly Cloudy
4:53 AM 80.1 °F 85.8 °F 77.0 °F 90% 30.03 in 10.0 mi SSE 3.5 mph - N/A   Clear
5:53 AM 79.0 °F - 77.0 °F 94% 30.04 in 10.0 mi South 4.6 mph - N/A   Clear
6:53 AM 80.1 °F 85.8 °F 77.0 °F 90% 30.06 in 10.0 mi South 4.6 mph - N/A   Scattered Clouds
7:53 AM 82.9 °F 93.8 °F 79.0 °F 88% 30.08 in 9.0 mi South 5.8 mph - N/A   Partly Cloudy
8:53 AM 87.1 °F 101.5 °F 79.0 °F 77% 30.09 in 10.0 mi South 11.5 mph - N/A   Partly Cloudy
9:53 AM 90.0 °F 104.5 °F 78.1 °F 68% 30.09 in 10.0 mi South 13.8 mph - N/A   Mostly Cloudy
10:53 AM 91.0 °F 101.6 °F 75.0 °F 59% 30.10 in 10.0 mi South 13.8 mph - N/A   Mostly Cloudy
11:53 AM 91.9 °F 103.9 °F 75.9 °F 59% 30.10 in 10.0 mi SSW 10.4 mph - N/A   Clear
12:53 PM 93.0 °F 103.2 °F 73.9 °F 54% 30.09 in 10.0 mi SSW 10.4 mph - N/A   Partly Cloudy
1:53 PM 93.0 °F 104.6 °F 75.0 °F 56% 30.08 in 10.0 mi SSW 13.8 mph 18.4 mph N/A   Clear
2:53 PM 93.2 °F 102.4 °F 73.4 °F 52% 30.06 in 10.0 mi SSW 12.7 mph - N/A   Clear
3:53 PM 91.9 °F 100.7 °F 73.0 °F 54% 30.06 in 10.0 mi South 11.5 mph - N/A   Clear
4:53 PM 91.0 °F 101.6 °F 75.0 °F 59% 30.06 in 10.0 mi South 11.5 mph - N/A   Clear
5:53 PM 89.1 °F 98.0 °F 73.9 °F 61% 30.07 in 10.0 mi SSW 9.2 mph 20.7 mph N/A   Clear
6:53 PM 87.1 °F 95.4 °F 73.9 °F 65% 30.06 in 10.0 mi South 10.4 mph - N/A   Clear
7:53 PM 82.9 °F 90.2 °F 75.0 °F 77% 30.07 in 10.0 mi South 6.9 mph - N/A   Clear
8:53 PM 81.0 °F 86.7 °F 75.0 °F 82% 30.07 in 10.0 mi South 4.6 mph - N/A   Clear
10:53 PM 78.1 °F - 75.0 °F 90% 30.08 in 10.0 mi South 4.6 mph - N/A   Clear
11:53 PM 77.0 °F - 73.9 °F 90% 30.07 in 10.0 mi South 4.6 mph - N/A   Clear